Flag for Canada Weather past 2 weeks in Kamloops, British Columbia, Canada

Now
43 °F

Passing clouds.


Feels Like: 41 °F
Forecast: 39 / 60 °F
Wind: 3 mph from West

Location: Kamloops


UV Index: 3 (Moderate)

Visibility: 40 mi


Pressure: 29.82 "Hg

Humidity: 66%

Dew point: 32 °F

Location of KamloopsLocation

Historic Weather in Kamloops

°F

Kamloops temperature yesterday

Maximum temperature yesterday: 59 °F (at 6:00 PM)
Minimum temperature yesterday: 41 °F (at 6:00 AM)
Average temperature yesterday: 47 °F

Past Weeks' High & Low Weather Summary

 TemperatureHumidityPressure
High70 °F (Apr 14, 5:00 PM)93% (Apr 22, 7:00 AM)30.46 "Hg (Apr 22, 7:00 AM)
Low32 °F (Apr 13, 6:00 AM)11% (Apr 14, 5:00 PM)29.59 "Hg (Apr 17, 11:00 PM)
Average49 °F56%29.93 "Hg
* Reported Apr 10 1:00 AM — Apr 25 1:00 AM, Kamloops, Weather by CustomWeather, © 2014

Note: Actual official high and low records may vary slightly from our data, if they occured in-between our weather recording intervals... More about our weather records

Advertising

Historic Weather Conditions — Data for Previous 24 hours

 ConditionsComfort  
Time TempWeatherWind HumidityBarometerVisibility
1:00 AM
Apr 25
43 °FPassing clouds.3 mph66%29.82 "Hg40 mi
12:00 AM45 °FPassing clouds.7 mph61%29.80 "Hg40 mi
11:00 PM
Apr 24
46 °FPassing clouds.10 mph66%29.78 "Hg40 mi
10:00 PM48 °FPassing clouds.7 mph58%29.76 "Hg40 mi
9:00 PM48 °FBroken clouds.13 mph62%29.74 "Hg40 mi
8:00 PM52 °FBroken clouds.16 mph58%29.71 "Hg40 mi
7:00 PM55 °FPartly sunny.3 mph41%29.69 "Hg40 mi
6:00 PM59 °FBroken clouds.14 mph34%29.68 "Hg40 mi
5:00 PM55 °FScattered clouds.20 mph59%29.69 "Hg40 mi
4:00 PM54 °FBroken clouds.20 mph63%29.68 "Hg40 mi
3:00 PM52 °FBroken clouds.16 mph72%29.70 "Hg40 mi
2:00 PM50 °FMore clouds than sun.16 mph76%29.70 "Hg40 mi
1:00 PM48 °FOvercast.12 mph76%29.70 "Hg40 mi
12:00 PM46 °FLight rain. Mostly cloudy.9 mph82%29.70 "Hg20 mi
11:00 AM48 °FMostly cloudy.12 mph71%29.68 "Hg30 mi
10:00 AM46 °FOvercast.8 mph76%29.68 "Hg30 mi
9:00 AM43 °FOvercast.12 mph87%29.67 "Hg25 mi
8:00 AM41 °FLight rain. Overcast.10 mph93%29.67 "Hg20 mi
7:00 AM41 °FOvercast.9 mph87%29.68 "Hg40 mi
6:00 AM41 °FLight rain. Overcast.8 mph87%29.68 "Hg20 mi
5:00 AM43 °FLight rain. Overcast.9 mph71%29.69 "Hg20 mi
4:52 AM43 °FLight rain. Overcast.10 mph71%29.69 "Hg20 mi
4:00 AM43 °FPassing clouds.13 mph71%29.69 "Hg40 mi
3:00 AM43 °FPartly cloudy.10 mph76%29.71 "Hg40 mi
2:00 AM43 °FPassing clouds.10 mph71%29.72 "Hg40 mi
Weather by CustomWeather, © 2014

See weather overview